Ardmore Downtown, OK

4:14 PM CST on November 11, 2019 (GMT -0600)
Ardmore Downtown

Weather History for K1F0 - June, 2019

Change the Weather History Date:

Saturday, June 8, 2019

  Actual Average (KADM) Record (KADM)
Temperature  
Mean Temperature 76 °F -  
Max Temperature 86 °F 84 °F 95 °F (2006)
Min Temperature 66 °F 66 °F 59 °F (2006)
Cooling Degree Days 11    
Growing Degree Days 26 (Base 50)    
Moisture  
Dew Point 64 °F    
Average Humidity 68    
Maximum Humidity 94    
Minimum Humidity 43    
Precipitation  
Precipitation 0.00 in - - ()
Sea Level Pressure  
Sea Level Pressure 29.84 in    
Wind  
Wind Speed 2 mph (ENE)    
Max Wind Speed 8 mph    
Max Gust Speed -    
Visibility 10 miles    
Events      
Averages and records for this station are not official NWS values.
T = Trace of Precipitation, MM = Missing Value Source: NWS Daily Summary

Daily Weather History Graph

Daily Weather History Graph

Search for Another Location

Airport or City:

Astronomy

Jun. 08, 2019 Rise Set
Actual Time 6:16 AM CDT 8:38 PM CDT
Civil Twilight 5:47 AM CDT 9:07 PM CDT
Nautical Twilight 5:11 AM CDT 9:43 PM CDT
Astronomical Twilight 4:32 AM CDT 10:22 PM CDT
Moon 11:39 AM CDT (6/8) 12:46 AM CDT (6/8)
Length of Visible Light 15h 20m
Length of Day
14h 22m
Waxing Crescent, 33% of the Moon is Illuminated
Jun 8
Waxing Crescent
Jun 10
First Quarter
Jun 17
Full
Jun 25
Last Quarter
Jul 2
New

Hourly Weather History & Observations

Time (CDT) Temp. Heat Index Dew Point Humidity Pressure Visibility Wind Dir Wind Speed Gust Speed Precip Events Conditions
12:15 AM 71.6 °F - 66.2 °F 83% 29.80 in 10.0 mi Calm Calm - N/A   Clear
12:35 AM 71.6 °F - 66.2 °F 83% 29.81 in 10.0 mi Calm Calm - N/A   Clear
12:55 AM 69.8 °F - 66.2 °F 88% 29.80 in 10.0 mi Calm Calm - N/A   Clear
1:15 AM 69.8 °F - 66.2 °F 88% 29.80 in 10.0 mi Calm Calm - N/A   Clear
1:35 AM 69.8 °F - 64.4 °F 83% 29.80 in 10.0 mi Calm Calm - N/A   Clear
1:55 AM 69.8 °F - 64.4 °F 83% 29.80 in 10.0 mi Calm Calm - N/A   Clear
2:15 AM 69.8 °F - 64.4 °F 83% 29.80 in 10.0 mi Calm Calm - N/A   Clear
2:35 AM 69.8 °F - 64.4 °F 83% 29.81 in 10.0 mi North 3.5 mph - N/A   Clear
2:55 AM 69.8 °F - 64.4 °F 83% 29.81 in 10.0 mi NNE 3.5 mph - N/A   Clear
3:15 AM 69.8 °F - 62.6 °F 78% 29.81 in 10.0 mi North 3.5 mph - N/A   Clear
3:35 AM 69.8 °F - 62.6 °F 78% 29.82 in 10.0 mi NNE 5.8 mph - N/A   Clear
3:55 AM 68.0 °F - 62.6 °F 83% 29.81 in 10.0 mi NNE 5.8 mph - N/A   Clear
4:15 AM 68.0 °F - 62.6 °F 83% 29.81 in 10.0 mi NNE 5.8 mph - N/A   Clear
4:35 AM 68.0 °F - 62.6 °F 83% 29.82 in 10.0 mi Calm Calm - N/A   Clear
4:55 AM 68.0 °F - 62.6 °F 83% 29.82 in 10.0 mi North 3.5 mph - N/A   Clear
5:15 AM 66.2 °F - 62.6 °F 88% 29.82 in 10.0 mi Calm Calm - N/A   Clear
7:15 AM 68.0 °F - 64.4 °F 88% 29.86 in 10.0 mi Calm Calm - N/A   Clear
7:35 AM 69.8 °F - 64.4 °F 83% 29.87 in 10.0 mi Calm Calm - N/A   Clear
7:55 AM 69.8 °F - 64.4 °F 83% 29.88 in 10.0 mi North 3.5 mph - N/A   Clear
8:15 AM 71.6 °F - 64.4 °F 78% 29.88 in 10.0 mi NE 4.6 mph - N/A   Clear
8:35 AM 71.6 °F - 64.4 °F 78% 29.89 in 10.0 mi Calm Calm - N/A   Clear
8:55 AM 71.6 °F - 64.4 °F 78% 29.89 in 10.0 mi NNE 4.6 mph - N/A   Clear
9:15 AM 73.4 °F - 64.4 °F 73% 29.88 in 10.0 mi ENE 6.9 mph - N/A   Clear
9:35 AM 75.2 °F - 64.4 °F 69% 29.88 in 10.0 mi East 5.8 mph - N/A   Clear
9:55 AM 77.0 °F - 64.4 °F 65% 29.89 in 10.0 mi East 8.1 mph - N/A   Clear
10:15 AM 77.0 °F - 64.4 °F 65% 29.88 in 10.0 mi ENE 5.8 mph - N/A   Clear
10:35 AM 77.0 °F - 64.4 °F 65% 29.87 in 10.0 mi ENE 4.6 mph - N/A   Clear
10:55 AM 78.8 °F - 64.4 °F 61% 29.88 in 10.0 mi SE 3.5 mph - N/A   Scattered Clouds
11:15 AM 78.8 °F - 64.4 °F 61% 29.88 in 10.0 mi Calm Calm - N/A   Scattered Clouds
11:35 AM 78.8 °F - 64.4 °F 61% 29.87 in 10.0 mi Calm Calm - N/A   Clear
11:55 AM 80.6 °F 82.3 °F 64.4 °F 58% 29.87 in 10.0 mi NE 5.8 mph - N/A   Clear
12:15 PM 80.6 °F 82.3 °F 64.4 °F 58% 29.87 in 10.0 mi NNE 4.6 mph - N/A   Clear
12:35 PM 80.6 °F 81.8 °F 62.6 °F 54% 29.87 in 10.0 mi Calm Calm - N/A   Clear
12:55 PM 80.6 °F 81.8 °F 62.6 °F 54% 29.87 in 10.0 mi Calm Calm - N/A   Clear
1:15 PM 82.4 °F 83.4 °F 62.6 °F 51% 29.87 in 10.0 mi Calm Calm - N/A   Clear
1:35 PM 82.4 °F 83.9 °F 64.4 °F 54% 29.87 in 10.0 mi Calm Calm - N/A   Clear
1:55 PM 82.4 °F 83.4 °F 62.6 °F 51% 29.87 in 10.0 mi East 3.5 mph - N/A   Clear
2:15 PM 84.2 °F 85.6 °F 64.4 °F 51% 29.86 in 10.0 mi North 3.5 mph - N/A   Clear
2:35 PM 84.2 °F 85.0 °F 62.6 °F 48% 29.85 in 10.0 mi ESE 4.6 mph - N/A   Clear
2:55 PM 86.0 °F 86.6 °F 62.6 °F 45% 29.85 in 10.0 mi ENE 3.5 mph - N/A   Scattered Clouds
3:15 PM 86.0 °F 86.6 °F 62.6 °F 45% 29.85 in 10.0 mi Calm Calm - N/A   Scattered Clouds
3:35 PM 86.0 °F 86.6 °F 62.6 °F 45% 29.84 in 10.0 mi NE 4.6 mph - N/A   Clear
3:55 PM 86.0 °F 86.1 °F 60.8 °F 43% 29.84 in 10.0 mi Calm Calm - N/A   Clear
4:15 PM 86.0 °F 86.6 °F 62.6 °F 45% 29.83 in 10.0 mi North 3.5 mph - N/A   Clear
4:35 PM 86.0 °F 86.1 °F 60.8 °F 43% 29.82 in 10.0 mi Calm Calm - N/A   Clear
4:55 PM 86.0 °F 87.3 °F 64.4 °F 48% 29.82 in 10.0 mi SE 4.6 mph - N/A   Clear
5:15 PM 86.0 °F 86.6 °F 62.6 °F 45% 29.82 in 10.0 mi ESE 4.6 mph - N/A   Clear
5:35 PM 86.0 °F 86.6 °F 62.6 °F 45% 29.82 in 10.0 mi ESE 3.5 mph - N/A   Clear
5:55 PM 86.0 °F 86.6 °F 62.6 °F 45% 29.81 in 10.0 mi SE 3.5 mph - N/A   Clear
6:15 PM 86.0 °F 86.6 °F 62.6 °F 45% 29.81 in 10.0 mi ESE 3.5 mph - N/A   Clear
6:35 PM 86.0 °F 86.6 °F 62.6 °F 45% 29.81 in 10.0 mi East 4.6 mph - N/A   Clear
6:55 PM 86.0 °F 86.6 °F 62.6 °F 45% 29.81 in 10.0 mi ESE 4.6 mph - N/A   Clear
7:15 PM 84.2 °F 85.0 °F 62.6 °F 48% 29.81 in 10.0 mi ESE 3.5 mph - N/A   Clear
7:35 PM 82.4 °F 83.9 °F 64.4 °F 54% 29.82 in 10.0 mi ESE 3.5 mph - N/A   Clear
7:55 PM 80.6 °F 82.7 °F 66.2 °F 61% 29.82 in 10.0 mi ESE 3.5 mph - N/A   Clear
8:15 PM 80.6 °F 83.2 °F 68.0 °F 65% 29.82 in 10.0 mi Calm Calm - N/A   Clear
8:35 PM 77.0 °F - 68.0 °F 74% 29.82 in 10.0 mi Calm Calm - N/A   Clear
8:55 PM 73.4 °F - 68.0 °F 83% 29.82 in 10.0 mi Calm Calm - N/A   Clear
9:15 PM 73.4 °F - 68.0 °F 83% 29.82 in 10.0 mi Calm Calm - N/A   Clear
9:35 PM 73.4 °F - 68.0 °F 83% 29.83 in 10.0 mi Calm Calm - N/A   Clear
9:55 PM 73.4 °F - 68.0 °F 83% 29.84 in 10.0 mi Calm Calm - N/A   Clear
10:15 PM 71.6 °F - 68.0 °F 88% 29.84 in 10.0 mi Calm Calm - N/A   Clear
10:35 PM 71.6 °F - 68.0 °F 88% 29.85 in 10.0 mi Calm Calm - N/A   Clear
10:55 PM 71.6 °F - 68.0 °F 88% 29.85 in 10.0 mi Calm Calm - N/A   Clear
11:15 PM 69.8 °F - 68.0 °F 94% 29.85 in 10.0 mi Calm Calm - N/A   Clear
11:35 PM 69.8 °F - 66.2 °F 88% 29.86 in 10.0 mi Calm Calm - N/A   Clear
11:55 PM 69.8 °F - 66.2 °F 88% 29.86 in 10.0 mi Calm Calm - N/A   Clear